Terminal Aerodrome Forecast
Issued by NWS

Home | Current Version | Previous Version | Text Only | Print | Product List | Glossary On
Versions: 1 2 3 4 5 6 7 8 9 10 11 12 13 14
000
FTUS45 KRIW 290526
TAFLND
TAF
KLND 290526Z 2906/3006 VRB06KT P6SM FEW100
     FM292000 03007KT P6SM SCT090
     FM300300 26006KT P6SM FEW110=

USA.gov is the U.S. government's official web portal to all federal, state and local government web resources and services.